Content
SEND FEEDBACK

Daily
Averages
Monthly
Summary
United States of America

INGLEWOOD, CALIFORNIA


Home > North America > United States > California
Elevation: 4 meters     Latitude: 33 56N     Longitude: 118 23W

WEATHER
 
SELECT A DAY
Number of Records: 194,296;   Date Range: 1/1/95 - 10/18/14
 
SHARE

PRINT THIS DATA

[ ← Previous Day ]
WEATHER ALMANAC - 5 FEBRUARY, 2013
[ Next Day → ]
[ °F ]   °C
Weather ElementAverageHighLow
Temperature12.7 °C13.9 °C (1:53 pm)11.7 °C (5:53 am)
Dewpoint9.9 °C11 °C (4:48 am)9 °C (5:11 pm)
Humidity83.2 %94 % (4:48 am)77 % (1:53 pm)
Barometer1017.6 hPa1019.6 hPa (10:34 am)1016.3 hPa (2:53 pm)
Wind Speed7.4 km/h16.7 km/h (3:53 pm)
Weather ElementAverage
Visibility8.9 km
Wind DirectionS (181 °)

Weather ElementTotal
Precipitation---
Heating Degree Days5.6 (Base 18.3)
Growing Degree Days2.8 (Base 10)
Averaged from 30 records on 5 February, 2013
WEATHER CONDITIONS BREAKOUT
WIND DIRECTION BREAKOUT
WEATHER BY HOUR - 5 FEBRUARY, 2013
[ °F ]   °C
Local TimeTemperatureDewpointHumidityBarometerVisibilityWind DirectionWind SpeedGust SpeedPrecipitationEventsConditions
1:53 AM12.2 °C10.6 °C90 %1017.9 hPa6.4 kmCalmOvercast
2:53 AM12.2 °C10.6 °C90 %1017.3 hPa6.4 kmENE (70°)9.3 km/hOvercast
3:53 AM12.2 °C10.6 °C90 %1016.9 hPa4.8 kmNE (40°)5.6 km/hOvercast
4:48 AM12 °C11 °C94 %1016.9 hPa3.2 kmSE (130°)7.4 km/hFogPatches of Fog
4:53 AM12.2 °C10.6 °C90 %1016.9 hPa3.2 kmCalmFogPatches of Fog
5:53 AM11.7 °C10 °C89 %1017.3 hPa3.2 kmSSE (150°)7.4 km/hFogPatches of Fog
6:53 AM12.2 °C10 °C86 %1017.9 hPa3.2 kmSSW (210°)5.6 km/hFogPatches of Fog
7:53 AM12.2 °C10.6 °C90 %1018.6 hPa3.2 kmWest (260°)7.4 km/hOvercast
8:27 AM13 °C11 °C88 %1019 hPa3.2 kmCalmOvercast
8:53 AM12.8 °C10 °C83 %1019 hPa3.2 kmWest (280°)5.6 km/hOvercast
9:53 AM12.8 °C10 °C83 %1019.3 hPa4 kmWSW (250°)5.6 km/hOvercast
10:34 AM13 °C10 °C82 %1019.6 hPa4.8 kmWest (270°)7.4 km/hOvercast
10:53 AM12.8 °C10 °C83 %1019.6 hPa4.8 kmWSW (250°)7.4 km/hOvercast
11:40 AM13 °C10 °C82 %1019 hPa6.4 kmSSW (210°)9.3 km/hOvercast
11:53 AM12.8 °C10 °C83 %1019 hPa6.4 kmSSW (210°)11.1 km/hOvercast
12:53 PM13.3 °C10.6 °C84 %1017.6 hPa8 kmWNW (290°)9.3 km/hOvercast
1:53 PM13.9 °C10 °C77 %1016.6 hPa9.7 kmCalmOvercast
2:53 PM13.3 °C10 °C80 %1016.3 hPa9.7 kmWest (270°)9.3 km/hOvercast
3:53 PM12.8 °C9.4 °C80 %1016.3 hPa16.1 kmSW (230°)16.7 km/hOvercast
4:53 PM12.8 °C9.4 °C80 %1016.3 hPa14.5 kmWSW (250°)14.8 km/hMostly Cloudy
5:11 PM13 °C9 °C77 %1016.6 hPa16.1 kmWest (260°)16.7 km/hOvercast
5:53 PM12.8 °C9.4 °C80 %1016.6 hPa14.5 kmWSW (240°)11.1 km/hOvercast
6:53 PM12.8 °C9.4 °C80 %1016.6 hPa12.9 kmWSW (250°)9.3 km/hOvercast
7:53 PM12.8 °C9.4 °C80 %1016.9 hPa11.3 kmWest (260°)9.3 km/hOvercast
8:53 PM12.8 °C9.4 °C80 %1017.3 hPa14.5 kmWest (270°)9.3 km/hOvercast
9:06 PM13 °C9 °C77 %1017.3 hPa14.5 kmWest (260°)7.4 km/hOvercast
9:53 PM12.8 °C9.4 °C80 %1017.3 hPa14.5 kmCalmOvercast
10:13 PM13 °C9 °C77 %1017.6 hPa14.5 kmSW (230°)7.4 km/hOvercast
10:53 PM12.8 °C9.4 °C80 %1017.3 hPa14.5 kmSSE (160°)5.6 km/hOvercast
11:53 PM12.8 °C9.4 °C80 %1016.9 hPa12.9 kmSE (130°)7.4 km/hOvercast
Hourly data recorded from KLAX, located 0 kilometers away from Inglewood, California







STORIES FROM OUR PARTNERS